Location: Saint-Palais-sur-Mer
(45.6429°N, 1.0859°W)
Time: 23:39:20
(UTC+01:00)

Tiros 1 despin weight - Pass Details

Date: 12 February 2026
Orbit: 556 x 593 km, 48.2° (Epoch: 13 March)

Event Time Altitude Azimuth Distance (km) Brightness Sun altitude
Rises 22:52:35 0° 289° (WNW) 2,739 ? -45.5°
Enters shadow 22:52:36 - 289° (WNW) 2,733 ? -45.5°
Reaches altitude 10° 22:54:50 10° 287° (WNW) 1,846 - -45.8°
Maximum altitude 22:59:02 75° 203° (SSW) 585 - -46.4°
Drops below altitude 10° 23:03:17 10° 118° (ESE) 1,859 - -47.0°
Sets 23:05:33 0° 117° (ESE) 2,761 - -47.3°
